Simultaneous Nadir Overpasses (SNOs) Predictions

Prediction of SNOs between NOAA-19 and METOP-C Satellite Orbit:

Table of predicted SNOs for the next 14.0 days since TLE Epoch: 4/19/2019
Index Date (NOAA-19) Time (NOAA-19) Lat,Lon (NOAA-19) SZA (NOAA-19 ) Date (METOP-C) Time (METOP-C) Lat,Lon (METOP-C) SZA (METOP-C ) Distance(km) Time Diff (sec)
1 04/26/2019 18:51:55 79.16, -87.86 65.92 04/26/2019 18:52:54 79.15, -87.93 65.92 1.80 59
2 04/26/2019 19:42:50 -79.16, 79.34 114.09 04/26/2019 19:43:35 -79.15, 79.43 114.09 2.46 45
3 04/26/2019 20:33:56 79.16,-113.39 65.90 04/26/2019 20:34:16 79.13,-113.37 65.88 3.08 20
4 04/26/2019 21:24:50 -79.14, 54.07 114.13 04/26/2019 21:24:57 -79.14, 53.99 114.13 1.75 7
5 04/26/2019 22:15:56 79.13,-138.66 65.86 04/26/2019 22:15:38 79.12,-138.80 65.84 3.30 18
6 04/26/2019 23:06:51 -79.14, 28.54 114.15 04/26/2019 23:06:19 -79.12, 28.56 114.17 1.90 32
7 04/26/2019 23:57:57 79.13,-164.19 65.84 04/26/2019 23:57:00 79.11,-164.24 65.80 3.46 57




NCC Satellite Simultaneous Nadir Overpasses (SNOs) Prediction Service
